| time (UTC) | temp C | wind direction | speed KPH | gust KPH | rain 1hr cm | rain 24hr cm | rain mn cm | humidity % | barometer mb |
| 20260508074852 | 21 | 198 | 3.2 | 3.2 | 0.00 | 0.00 | 0.00 | 58 | 1022.0 |
| 20260508074349 | 21 | 195 | 1.6 | 3.2 | 0.00 | 0.00 | 0.00 | 60 | 1022.0 |
| 20260508073846 | 21 | 195 | 3.2 | 4.8 | 0.00 | 0.00 | 0.00 | 58 | 1022.1 |
| 20260508073344 | 20 | 211 | 4.8 | 4.8 | 0.00 | 0.00 | 0.00 | 59 | 1022.2 |
| 20260508072840 | 20 | 210 | 0.0 | 6.4 | 0.00 | 0.00 | 0.00 | 61 | 1021.8 |
| 20260508072336 | 20 | 195 | 4.8 | 4.8 | 0.00 | 0.00 | 0.00 | 59 | 1021.7 |
| 20260508071834 | 20 | 187 | 4.8 | 6.4 | 0.00 | 0.00 | 0.00 | 65 | 1021.7 |
| 20260508071333 | 20 | 208 | 3.2 | 3.2 | 0.00 | 0.00 | 0.00 | 66 | 1021.6 |
| 20260508070830 | 21 | 237 | 3.2 | 8.0 | 0.00 | 0.00 | 0.00 | 66 | 1021.5 |
| 20260508070328 | 22 | 214 | 9.7 | 11.3 | 0.00 | 0.00 | 0.00 | 55 | 1021.2 |
| 20260508065825 | 22 | 199 | 6.4 | 6.4 | 0.00 | 0.00 | 0.00 | 43 | 1020.7 |
| 20260508065323 | 22 | 207 | 3.2 | 3.2 | 0.00 | 0.00 | 0.00 | 44 | 1020.4 |
| 20260508064821 | 22 | 211 | 3.2 | 3.2 | 0.00 | 0.00 | 0.00 | 45 | 1020.5 |
| 20260508064318 | 22 | 235 | 0.0 | 4.8 | 0.00 | 0.00 | 0.00 | 46 | 1020.5 |
| 20260508063815 | 21 | 220 | 0.0 | 3.2 | 0.00 | 0.00 | 0.00 | 48 | 1020.6 |
| 20260508063313 | 21 | 196 | 0.0 | 3.2 | 0.00 | 0.00 | 0.00 | 50 | 1020.6 |
| 20260508062810 | 21 | 183 | 0.0 | 1.6 | 0.00 | 0.00 | 0.00 | 53 | 1021.2 |
| 20260508062308 | 21 | 197 | 3.2 | 6.4 | 0.00 | 0.00 | 0.00 | 51 | 1021.7 |
| 20260508061804 | 21 | 195 | 3.2 | 3.2 | 0.00 | 0.00 | 0.00 | 50 | 1021.7 |
| 20260508061302 | 21 | 180 | 3.2 | 3.2 | 0.00 | 0.00 | 0.00 | 49 | 1021.6 |
| 20260508060758 | 21 | 181 | 1.6 | 3.2 | 0.00 | 0.00 | 0.00 | 45 | 1021.7 |
| 20260508060256 | 21 | 188 | 3.2 | 3.2 | 0.00 | 0.00 | 0.00 | 47 | 1021.8 |
| 20260508055751 | 21 | 204 | 3.2 | 3.2 | 0.00 | 0.00 | 0.00 | 45 | 1021.5 |
| 20260508055249 | 21 | 193 | 3.2 | 3.2 | 0.00 | 0.00 | 0.00 | 45 | 1021.6 |
| 20260508054745 | 20 | 198 | 6.4 | 8.0 | 0.00 | 0.00 | 0.00 | 43 | 1021.4 |
| 20260508054243 | 20 | 190 | 3.2 | 3.2 | 0.00 | 0.00 | 0.00 | 43 | 1021.0 |
| 20260508053740 | 20 | 231 | 1.6 | 3.2 | 0.00 | 0.00 | 0.00 | 43 | 1020.9 |
| 20260508053237 | 20 | 181 | 1.6 | 3.2 | 0.00 | 0.00 | 0.00 | 41 | 1020.5 |
| 20260508052734 | 20 | 197 | 0.0 | 3.2 | 0.00 | 0.00 | 0.00 | 42 | 1020.4 |
| 20260508052231 | 20 | 190 | 3.2 | 3.2 | 0.00 | 0.00 | 0.00 | 43 | 1020.3 |
| 20260508051727 | 20 | 193 | 0.0 | 3.2 | 0.00 | 0.00 | 0.00 | 44 | 1020.1 |
| 20260508051223 | 20 | 228 | 0.0 | 3.2 | 0.00 | 0.00 | 0.00 | 44 | 1020.1 |
| 20260508050719 | 20 | 184 | 1.6 | 3.2 | 0.00 | 0.00 | 0.00 | 43 | 1020.0 |
| 20260508050217 | 20 | 206 | 3.2 | 4.8 | 0.00 | 0.00 | 0.00 | 45 | 1020.0 |
| 20260508045712 | 20 | 186 | 0.0 | 1.6 | 0.00 | 0.00 | 0.00 | 44 | 1019.9 |
| 20260508045210 | 20 | 241 | 0.0 | 3.2 | 0.00 | 0.00 | 0.00 | 41 | 1019.8 |
| 20260508044707 | 20 | 180 | 3.2 | 3.2 | 0.00 | 0.00 | 0.00 | 39 | 1019.7 |
| 20260508044204 | 20 | 136 | 1.6 | 3.2 | 0.00 | 0.00 | 0.00 | 39 | 1019.7 |
| 20260508043659 | 20 | 211 | 3.2 | 4.8 | 0.00 | 0.00 | 0.00 | 39 | 1019.5 |
| 20260508043158 | 20 | 196 | 1.6 | 4.8 | 0.00 | 0.00 | 0.00 | 40 | 1019.5 |
| 20260508042654 | 20 | 193 | 3.2 | 3.2 | 0.00 | 0.00 | 0.00 | 40 | 1019.5 |
| 20260508042151 | 20 | 180 | 1.6 | 3.2 | 0.00 | 0.00 | 0.00 | 41 | 1019.4 |
| 20260508041648 | 20 | 194 | 3.2 | 3.2 | 0.00 | 0.00 | 0.00 | 39 | 1019.3 |
| 20260508041145 | 20 | 167 | 1.6 | 3.2 | 0.00 | 0.00 | 0.00 | 37 | 1019.1 |
| 20260508040641 | 20 | 220 | 0.0 | 4.8 | 0.00 | 0.00 | 0.00 | 37 | 1019.1 |
| 20260508040139 | 19 | 116 | 0.0 | 3.2 | 0.00 | 0.00 | 0.00 | 40 | 1019.0 |
| 20260508035636 | 19 | 134 | 0.0 | 4.8 | 0.00 | 0.00 | 0.00 | 41 | 1018.9 |
| 20260508035133 | 18 | 174 | 0.0 | 3.2 | 0.00 | 0.00 | 0.00 | 42 | 1019.1 |
| 20260508034630 | 19 | 180 | 1.6 | 3.2 | 0.00 | 0.00 | 0.00 | 42 | 1019.2 |
| 20260508034127 | 19 | 202 | 1.6 | 3.2 | 0.00 | 0.00 | 0.00 | 41 | 1019.2 |
| 20260508033624 | 19 | 201 | 3.2 | 4.8 | 0.00 | 0.00 | 0.00 | 43 | 1018.6 |
| 20260508033123 | 19 | 215 | 0.0 | 4.8 | 0.00 | 0.00 | 0.00 | 42 | 1018.0 |
| 20260508032618 | 20 | 187 | 1.6 | 3.2 | 0.00 | 0.00 | 0.00 | 39 | 1017.6 |
| 20260508032116 | 20 | 196 | 1.6 | 3.2 | 0.00 | 0.00 | 0.00 | 38 | 1017.2 |
| 20260508031613 | 20 | 238 | 0.0 | 3.2 | 0.00 | 0.00 | 0.00 | 37 | 1017.2 |
| 20260508031109 | 20 | 203 | 0.0 | 3.2 | 0.00 | 0.00 | 0.00 | 37 | 1017.0 |
| 20260508030606 | 20 | 190 | 1.6 | 3.2 | 0.00 | 0.00 | 0.00 | 37 | 1016.7 |
| 20260508030104 | 20 | 207 | 0.0 | 4.8 | 0.00 | 0.00 | 0.00 | 35 | 1017.1 |
| 20260508025559 | 20 | 197 | 0.0 | 3.2 | 0.00 | 0.00 | 0.00 | 36 | 1017.1 |
| 20260508025057 | 20 | 180 | 3.2 | 4.8 | 0.00 | 0.00 | 0.00 | 35 | 1016.9 |
| 20260508024552 | 20 | 199 | 0.0 | 3.2 | 0.00 | 0.00 | 0.00 | 35 | 1017.2 |
| 20260508024050 | 19 | 260 | 0.0 | 4.8 | 0.00 | 0.00 | 0.00 | 36 | 1017.0 |
| 20260508023546 | 19 | 175 | 3.2 | 4.8 | 0.00 | 0.00 | 0.00 | 34 | 1017.2 |
| 20260508023044 | 19 | 220 | 1.6 | 3.2 | 0.00 | 0.00 | 0.00 | 35 | 1017.4 |
| 20260508022539 | 19 | 138 | 1.6 | 3.2 | 0.00 | 0.00 | 0.00 | 36 | 1017.3 |
| 20260508022037 | 19 | 131 | 3.2 | 4.8 | 0.00 | 0.00 | 0.00 | 37 | 1017.5 |
| 20260508021532 | 18 | 188 | 3.2 | 3.2 | 0.00 | 0.00 | 0.00 | 37 | 1017.4 |
| 20260508021028 | 18 | 190 | 1.6 | 3.2 | 0.00 | 0.00 | 0.00 | 37 | 1017.5 |
| 20260508020526 | 18 | 198 | 1.6 | 3.2 | 0.00 | 0.00 | 0.00 | 37 | 1017.7 |
| 20260508020024 | 18 | 214 | 0.0 | 3.2 | 0.00 | 0.00 | 0.00 | 37 | 1017.5 |
| 20260508015521 | 19 | 197 | 3.2 | 3.2 | 0.00 | 0.00 | 0.00 | 36 | 1017.4 |
| 20260508015018 | 19 | 188 | 3.2 | 3.2 | 0.00 | 0.00 | 0.00 | 36 | 1017.5 |
| 20260508014514 | 19 | 191 | 3.2 | 3.2 | 0.00 | 0.00 | 0.00 | 35 | 1017.6 |
| 20260508014011 | 19 | 159 | 1.6 | 4.8 | 0.00 | 0.00 | 0.00 | 35 | 1017.7 |
| 20260508013507 | 19 | 205 | 3.2 | 4.8 | 0.00 | 0.00 | 0.00 | 34 | 1017.7 |
| 20260508013005 | 19 | 160 | 0.0 | 3.2 | 0.00 | 0.00 | 0.00 | 34 | 1017.7 |
| 20260508012501 | 19 | 142 | 3.2 | 4.8 | 0.00 | 0.00 | 0.00 | 34 | 1018.0 |
| 20260508011958 | 19 | 46 | 1.6 | 3.2 | 0.00 | 0.00 | 0.00 | 33 | 1017.9 |
| 20260508011456 | 20 | 182 | 3.2 | 3.2 | 0.00 | 0.00 | 0.00 | 32 | 1018.0 |
| 20260508010954 | 20 | 143 | 1.6 | 4.8 | 0.00 | 0.00 | 0.00 | 32 | 1018.1 |
| 20260508010450 | 19 | 177 | 1.6 | 4.8 | 0.00 | 0.00 | 0.00 | 31 | 1018.0 |
| 20260508005948 | 19 | 137 | 0.0 | 4.8 | 0.00 | 0.00 | 0.00 | 31 | 1018.3 |
| 20260508005444 | 19 | 195 | 3.2 | 4.8 | 0.00 | 0.00 | 0.00 | 33 | 1017.9 |
| 20260508004941 | 19 | 190 | 1.6 | 3.2 | 0.00 | 0.00 | 0.00 | 32 | 1017.9 |
| 20260508004437 | 19 | 186 | 3.2 | 3.2 | 0.00 | 0.00 | 0.00 | 35 | 1017.7 |
| 20260508003934 | 19 | 25 | 1.6 | 4.8 | 0.00 | 0.00 | 0.00 | 37 | 1018.0 |
| 20260508003431 | 19 | 60 | 3.2 | 4.8 | 0.00 | 0.00 | 0.00 | 37 | 1017.9 |
| 20260508002928 | 19 | 56 | 0.0 | 4.8 | 0.00 | 0.00 | 0.00 | 38 | 1018.0 |
| 20260508002424 | 19 | 48 | 3.2 | 3.2 | 0.00 | 0.00 | 0.00 | 39 | 1018.1 |
| 20260508001920 | 18 | 183 | 1.6 | 3.2 | 0.00 | 0.00 | 0.00 | 40 | 1018.1 |
| 20260508001417 | 18 | 192 | 3.2 | 3.2 | 0.00 | 0.00 | 0.00 | 40 | 1018.2 |
| 20260508000913 | 18 | 171 | 1.6 | 3.2 | 0.00 | 0.00 | 0.00 | 40 | 1018.3 |
| 20260508000412 | 18 | 188 | 3.2 | 3.2 | 0.00 | 0.00 | 0.00 | 40 | 1018.5 |
| 20260507235906 | 18 | 2 | 1.6 | 1.6 | 0.00 | 0.00 | 0.00 | 42 | 1018.6 |
| 20260507235404 | 18 | 193 | 0.0 | 3.2 | 0.00 | 0.00 | 0.00 | 41 | 1018.6 |
| 20260507234900 | 18 | 202 | 3.2 | 3.2 | 0.00 | 0.00 | 0.00 | 40 | 1018.7 |
| 20260507234359 | 18 | 191 | 1.6 | 3.2 | 0.00 | 0.00 | 0.00 | 41 | 1018.6 |
| 20260507233853 | 18 | 193 | 3.2 | 3.2 | 0.00 | 0.00 | 0.00 | 41 | 1018.8 |
| 20260507233351 | 18 | 216 | 0.0 | 3.2 | 0.00 | 0.00 | 0.00 | 41 | 1018.9 |
| 20260507232849 | 18 | 190 | 1.6 | 3.2 | 0.00 | 0.00 | 0.00 | 40 | 1019.1 |
| 20260507232345 | 18 | 263 | 3.2 | 4.8 | 0.00 | 0.00 | 0.00 | 39 | 1019.0 |
| 20260507231843 | 18 | 61 | 0.0 | 1.6 | 0.00 | 0.00 | 0.00 | 40 | 1019.1 |
| 20260507231339 | 18 | 191 | 0.0 | 3.2 | 0.00 | 0.00 | 0.00 | 40 | 1019.1 |
| 20260507230835 | 18 | 207 | 0.0 | 1.6 | 0.00 | 0.00 | 0.00 | 40 | 1019.3 |
| 20260507230333 | 18 | 351 | 3.2 | 3.2 | 0.00 | 0.00 | 0.00 | 40 | 1019.4 |
| 20260507225833 | 17 | 181 | 3.2 | 3.2 | 0.00 | 0.00 | 0.00 | 41 | 1019.5 |
| 20260507225329 | 18 | 209 | 1.6 | 1.6 | 0.00 | 0.00 | 0.00 | 40 | 1019.5 |
| 20260507224825 | 17 | 156 | 0.0 | 3.2 | 0.00 | 0.00 | 0.00 | 40 | 1019.5 |
| 20260507224322 | 17 | 165 | 0.0 | 1.6 | 0.00 | 0.00 | 0.00 | 39 | 1019.7 |
| 20260507223818 | 17 | 109 | 0.0 | 3.2 | 0.00 | 0.00 | 0.00 | 40 | 1019.7 |
| 20260507223314 | 17 | 183 | 1.6 | 3.2 | 0.00 | 0.00 | 0.00 | 38 | 1019.7 |
| 20260507222812 | 17 | 202 | 1.6 | 4.8 | 0.00 | 0.00 | 0.00 | 39 | 1020.0 |
| 20260507222308 | 17 | 77 | 0.0 | 3.2 | 0.00 | 0.00 | 0.00 | 41 | 1019.9 |
| 20260507221805 | 17 | 144 | 1.6 | 3.2 | 0.00 | 0.00 | 0.00 | 40 | 1019.7 |
| 20260507221302 | 16 | 178 | 3.2 | 3.2 | 0.00 | 0.00 | 0.00 | 42 | 1020.0 |
| 20260507220757 | 16 | 190 | 3.2 | 3.2 | 0.00 | 0.00 | 0.00 | 47 | 1020.1 |
| 20260507220256 | 16 | 140 | 0.0 | 3.2 | 0.00 | 0.00 | 0.00 | 48 | 1020.2 |
| 20260507215752 | 16 | 173 | 0.0 | 0.0 | 0.00 | 0.00 | 0.00 | 48 | 1020.4 |
| 20260507215250 | 16 | 181 | 1.6 | 1.6 | 0.00 | 0.00 | 0.00 | 48 | 1020.5 |
| 20260507214747 | 17 | 327 | 0.0 | 0.0 | 0.00 | 0.00 | 0.00 | 48 | 1020.2 |
| 20260507214244 | 17 | 162 | 0.0 | 1.6 | 0.00 | 0.00 | 0.00 | 47 | 1020.1 |
| 20260507213739 | 18 | 200 | 1.6 | 3.2 | 0.00 | 0.00 | 0.00 | 46 | 1020.2 |
| 20260507213236 | 18 | 215 | 1.6 | 3.2 | 0.00 | 0.00 | 0.00 | 45 | 1020.0 |
| 20260507212732 | 18 | 183 | 0.0 | 3.2 | 0.00 | 0.00 | 0.00 | 43 | 1019.8 |
| 20260507212229 | 18 | 44 | 0.0 | 1.6 | 0.00 | 0.00 | 0.00 | 42 | 1019.6 |
| 20260507211726 | 18 | 190 | 3.2 | 3.2 | 0.00 | 0.00 | 0.00 | 40 | 1019.6 |
| 20260507211222 | 18 | 184 | 1.6 | 3.2 | 0.00 | 0.00 | 0.00 | 42 | 1019.5 |
| 20260507210719 | 18 | 177 | 1.6 | 3.2 | 0.00 | 0.00 | 0.00 | 42 | 1019.8 |
| 20260507210216 | 18 | 202 | 3.2 | 3.2 | 0.00 | 0.00 | 0.00 | 42 | 1020.0 |
| 20260507205712 | 18 | 145 | 1.6 | 3.2 | 0.00 | 0.00 | 0.00 | 43 | 1020.1 |
| 20260507205209 | 18 | 188 | 0.0 | 3.2 | 0.00 | 0.00 | 0.00 | 44 | 1020.5 |
| 20260507204705 | 18 | 201 | 1.6 | 3.2 | 0.00 | 0.00 | 0.00 | 48 | 1020.5 |
| 20260507204203 | 18 | 191 | 0.0 | 3.2 | 0.00 | 0.00 | 0.00 | 47 | 1020.5 |
| 20260507203701 | 18 | 183 | 0.0 | 3.2 | 0.00 | 0.00 | 0.00 | 48 | 1020.8 |
| 20260507203158 | 18 | 180 | 0.0 | 3.2 | 0.00 | 0.00 | 0.00 | 48 | 1020.9 |
| 20260507202653 | 18 | 183 | 1.6 | 3.2 | 0.00 | 0.00 | 0.00 | 46 | 1020.6 |
| 20260507202150 | 18 | 205 | 1.6 | 3.2 | 0.00 | 0.00 | 0.00 | 45 | 1020.5 |
| 20260507201645 | 18 | 209 | 3.2 | 3.2 | 0.00 | 0.00 | 0.00 | 45 | 1020.6 |
| 20260507201142 | 18 | 180 | 3.2 | 3.2 | 0.00 | 0.00 | 0.00 | 44 | 1020.6 |
| 20260507200638 | 18 | 187 | 0.0 | 3.2 | 0.00 | 0.00 | 0.00 | 44 | 1020.6 |
| 20260507200135 | 18 | 206 | 1.6 | 3.2 | 0.00 | 0.00 | 0.00 | 44 | 1020.6 |
| 20260507195631 | 18 | 278 | 0.0 | 3.2 | 0.00 | 0.00 | 0.00 | 43 | 1020.6 |
| 20260507195129 | 18 | 332 | 3.2 | 6.4 | 0.00 | 0.00 | 0.00 | 46 | 1020.6 |
| 20260507194626 | 18 | 195 | 1.6 | 3.2 | 0.00 | 0.00 | 0.00 | 46 | 1020.2 |
| 20260507194120 | 18 | 182 | 0.0 | 1.6 | 0.00 | 0.00 | 0.00 | 45 | 1020.3 |
| 20260507193618 | 18 | 186 | 0.0 | 3.2 | 0.00 | 0.00 | 0.00 | 45 | 1020.5 |
| 20260507193115 | 18 | 180 | 0.0 | 3.2 | 0.00 | 0.00 | 0.00 | 45 | 1020.4 |
| 20260507192611 | 18 | 202 | 0.0 | 3.2 | 0.00 | 0.00 | 0.00 | 44 | 1020.4 |
| 20260507192108 | 18 | 184 | 1.6 | 3.2 | 0.00 | 0.00 | 0.00 | 44 | 1020.3 |
| 20260507191603 | 18 | 157 | 0.0 | 3.2 | 0.00 | 0.00 | 0.00 | 44 | 1020.3 |
| 20260507191101 | 18 | 158 | 0.0 | 3.2 | 0.00 | 0.00 | 0.00 | 44 | 1020.2 |
| 20260507190558 | 18 | 172 | 0.0 | 4.8 | 0.00 | 0.00 | 0.00 | 44 | 1020.1 |
| 20260507190057 | 18 | 165 | 1.6 | 3.2 | 0.00 | 0.00 | 0.00 | 44 | 1020.1 |
| 20260507185555 | 18 | 171 | 0.0 | 3.2 | 0.00 | 0.00 | 0.00 | 45 | 1020.0 |
| 20260507185051 | 18 | 125 | 0.0 | 3.2 | 0.00 | 0.00 | 0.00 | 44 | 1020.0 |
| 20260507184549 | 18 | 183 | 0.0 | 4.8 | 0.00 | 0.00 | 0.00 | 43 | 1019.9 |
| 20260507184047 | 18 | 170 | 3.2 | 4.8 | 0.00 | 0.00 | 0.00 | 43 | 1019.6 |
| 20260507183542 | 18 | 190 | 0.0 | 3.2 | 0.00 | 0.00 | 0.00 | 44 | 1019.5 |
| 20260507183040 | 18 | 66 | 1.6 | 3.2 | 0.00 | 0.00 | 0.00 | 44 | 1019.7 |
| 20260507182536 | 18 | 132 | 0.0 | 3.2 | 0.00 | 0.00 | 0.00 | 43 | 1019.4 |
| 20260507182032 | 18 | 146 | 1.6 | 3.2 | 0.00 | 0.00 | 0.00 | 44 | 1019.4 |
| 20260507181529 | 18 | 258 | 3.2 | 4.8 | 0.00 | 0.00 | 0.00 | 43 | 1019.6 |
| 20260507181025 | 18 | 180 | 0.0 | 4.8 | 0.00 | 0.00 | 0.00 | 43 | 1019.5 |
| 20260507180522 | 18 | 187 | 0.0 | 3.2 | 0.00 | 0.00 | 0.00 | 44 | 1019.9 |
| 20260507180019 | 18 | 127 | 0.0 | 3.2 | 0.00 | 0.00 | 0.00 | 45 | 1020.0 |
| 20260507175515 | 18 | 181 | 1.6 | 1.6 | 0.00 | 0.00 | 0.00 | 44 | 1020.0 |
| 20260507175013 | 18 | 190 | 3.2 | 3.2 | 0.00 | 0.00 | 0.00 | 44 | 1020.0 |
| 20260507174510 | 19 | 193 | 0.0 | 3.2 | 0.00 | 0.00 | 0.00 | 44 | 1019.7 |
| 20260507174007 | 19 | 189 | 3.2 | 3.2 | 0.00 | 0.00 | 0.00 | 45 | 1019.8 |
| 20260507173504 | 19 | 188 | 3.2 | 3.2 | 0.00 | 0.00 | 0.00 | 45 | 1019.5 |
| 20260507173001 | 19 | 194 | 1.6 | 3.2 | 0.00 | 0.00 | 0.00 | 46 | 1019.6 |
| 20260507172457 | 19 | 180 | 3.2 | 3.2 | 0.00 | 0.00 | 0.00 | 46 | 1019.6 |
| 20260507171954 | 19 | 191 | 3.2 | 3.2 | 0.00 | 0.00 | 0.00 | 47 | 1019.6 |
| 20260507171449 | 20 | 186 | 3.2 | 3.2 | 0.00 | 0.00 | 0.00 | 48 | 1019.6 |
| 20260507170947 | 20 | 144 | 0.0 | 4.8 | 0.00 | 0.00 | 0.00 | 47 | 1019.6 |
| 20260507170444 | 20 | 194 | 3.2 | 3.2 | 0.00 | 0.00 | 0.00 | 47 | 1019.6 |
| 20260507165940 | 20 | 176 | 1.6 | 3.2 | 0.00 | 0.00 | 0.00 | 45 | 1019.6 |
| 20260507165436 | 20 | 202 | 1.6 | 3.2 | 0.00 | 0.00 | 0.00 | 44 | 1019.4 |
| 20260507164932 | 20 | 197 | 0.0 | 3.2 | 0.00 | 0.00 | 0.00 | 45 | 1019.4 |
| 20260507164429 | 21 | 193 | 0.0 | 3.2 | 0.00 | 0.00 | 0.00 | 44 | 1019.4 |
| 20260507163926 | 21 | 224 | 0.0 | 3.2 | 0.00 | 0.00 | 0.00 | 43 | 1019.1 |
| 20260507163424 | 21 | 204 | 0.0 | 3.2 | 0.00 | 0.00 | 0.00 | 44 | 1019.2 |
| 20260507162920 | 21 | 190 | 1.6 | 3.2 | 0.00 | 0.00 | 0.00 | 43 | 1019.2 |
| 20260507162415 | 21 | 149 | 0.0 | 1.6 | 0.00 | 0.00 | 0.00 | 43 | 1019.3 |
| 20260507161913 | 21 | 198 | 1.6 | 1.6 | 0.00 | 0.00 | 0.00 | 41 | 1019.2 |
| 20260507161409 | 21 | 230 | 0.0 | 0.0 | 0.00 | 0.00 | 0.00 | 38 | 1019.3 |
| 20260507160906 | 21 | 198 | 3.2 | 4.8 | 0.00 | 0.00 | 0.00 | 41 | 1019.5 |
| 20260507160401 | 21 | 214 | 6.4 | 6.4 | 0.00 | 0.00 | 0.00 | 40 | 1019.3 |
| 20260507155858 | 21 | 214 | 3.2 | 4.8 | 0.00 | 0.00 | 0.00 | 38 | 1019.3 |
| 20260507155354 | 21 | 216 | 4.8 | 4.8 | 0.00 | 0.00 | 0.00 | 38 | 1019.3 |
| 20260507154851 | 21 | 218 | 4.8 | 4.8 | 0.00 | 0.00 | 0.00 | 40 | 1019.1 |
| 20260507154348 | 21 | 242 | 3.2 | 4.8 | 0.00 | 0.00 | 0.00 | 39 | 1019.2 |
| 20260507153845 | 21 | 241 | 3.2 | 4.8 | 0.00 | 0.00 | 0.00 | 44 | 1019.2 |
| 20260507153341 | 22 | 228 | 4.8 | 4.8 | 0.00 | 0.00 | 0.00 | 47 | 1019.2 |
| 20260507152838 | 22 | 233 | 4.8 | 6.4 | 0.00 | 0.00 | 0.00 | 48 | 1018.9 |
| 20260507152334 | 22 | 215 | 3.2 | 8.0 | 0.00 | 0.00 | 0.00 | 46 | 1019.0 |
| 20260507151831 | 22 | 221 | 6.4 | 9.7 | 0.00 | 0.00 | 0.00 | 50 | 1019.2 |
| 20260507151327 | 22 | 208 | 6.4 | 9.7 | 0.00 | 0.00 | 0.00 | 42 | 1019.1 |
| 20260507150824 | 23 | 215 | 3.2 | 4.8 | 0.00 | 0.00 | 0.00 | 34 | 1019.4 |
| 20260507150320 | 23 | 185 | 0.0 | 3.2 | 0.00 | 0.00 | 0.00 | 35 | 1019.3 |
| 20260507145817 | 23 | 197 | 0.0 | 3.2 | 0.00 | 0.00 | 0.00 | 35 | 1019.5 |
| 20260507145313 | 22 | 236 | 0.0 | 3.2 | 0.00 | 0.00 | 0.00 | 35 | 1019.7 |
| 20260507144811 | 22 | 193 | 3.2 | 3.2 | 0.00 | 0.00 | 0.00 | 36 | 1019.7 |
| 20260507144307 | 22 | 196 | 1.6 | 4.8 | 0.00 | 0.00 | 0.00 | 39 | 1019.9 |
| 20260507143804 | 22 | 89 | 1.6 | 1.6 | 0.00 | 0.00 | 0.00 | 41 | 1020.1 |
| 20260507143302 | 22 | 210 | 0.0 | 4.8 | 0.00 | 0.00 | 0.00 | 39 | 1020.3 |
| 20260507142757 | 21 | 292 | 0.0 | 1.6 | 0.00 | 0.00 | 0.00 | 36 | 1020.2 |
| 20260507142254 | 21 | 187 | 1.6 | 3.2 | 0.00 | 0.00 | 0.00 | 39 | 1020.4 |
| 20260507141750 | 21 | 193 | 3.2 | 4.8 | 0.00 | 0.00 | 0.00 | 44 | 1020.2 |
| 20260507141248 | 21 | 231 | 3.2 | 4.8 | 0.00 | 0.00 | 0.00 | 49 | 1020.1 |
| 20260507140743 | 21 | 246 | 3.2 | 4.8 | 0.00 | 0.00 | 0.00 | 48 | 1020.2 |
| 20260507140241 | 21 | 201 | 3.2 | 4.8 | 0.00 | 0.00 | 0.00 | 48 | 1020.2 |
| 20260507135738 | 21 | 248 | 3.2 | 6.4 | 0.00 | 0.00 | 0.00 | 48 | 1019.8 |
| 20260507135235 | 21 | 228 | 8.0 | 9.7 | 0.00 | 0.00 | 0.00 | 48 | 1019.8 |
| 20260507134731 | 22 | 214 | 4.8 | 8.0 | 0.00 | 0.00 | 0.00 | 47 | 1020.0 |
| 20260507134228 | 22 | 218 | 4.8 | 8.0 | 0.00 | 0.00 | 0.00 | 41 | 1019.7 |
| 20260507133724 | 22 | 230 | 8.0 | 8.0 | 0.00 | 0.00 | 0.00 | 43 | 1019.7 |
| 20260507133221 | 22 | 233 | 6.4 | 9.7 | 0.00 | 0.00 | 0.00 | 48 | 1019.7 |
| 20260507132718 | 22 | 213 | 9.7 | 9.7 | 0.00 | 0.00 | 0.00 | 55 | 1019.6 |
| 20260507132215 | 22 | 222 | 8.0 | 9.7 | 0.00 | 0.00 | 0.00 | 55 | 1019.6 |
| 20260507131712 | 22 | 224 | 6.4 | 9.7 | 0.00 | 0.00 | 0.00 | 54 | 1019.7 |
| 20260507131209 | 22 | 206 | 6.4 | 8.0 | 0.00 | 0.00 | 0.00 | 51 | 1019.7 |
| 20260507130706 | 22 | 216 | 9.7 | 9.7 | 0.00 | 0.00 | 0.00 | 47 | 1019.8 |
| 20260507130204 | 22 | 202 | 6.4 | 11.3 | 0.00 | 0.00 | 0.00 | 50 | 1019.9 |
| 20260507125702 | 22 | 212 | 6.4 | 9.7 | 0.00 | 0.00 | 0.00 | 56 | 1019.9 |
| 20260507125159 | 22 | 224 | 8.0 | 9.7 | 0.00 | 0.00 | 0.00 | 55 | 1020.1 |
| 20260507124655 | 23 | 205 | 6.4 | 12.9 | 0.00 | 0.00 | 0.00 | 54 | 1020.3 |
| 20260507124153 | 23 | 223 | 8.0 | 11.3 | 0.00 | 0.00 | 0.00 | 52 | 1020.1 |
| 20260507123651 | 23 | 221 | 6.4 | 12.9 | 0.00 | 0.00 | 0.00 | 51 | 1020.2 |
| 20260507123148 | 22 | 223 | 9.7 | 11.3 | 0.00 | 0.00 | 0.00 | 50 | 1020.3 |
| 20260507122643 | 22 | 187 | 9.7 | 9.7 | 0.00 | 0.00 | 0.00 | 50 | 1020.4 |
| 20260507122139 | 23 | 208 | 4.8 | 9.7 | 0.00 | 0.00 | 0.00 | 48 | 1020.7 |
| 20260507121635 | 23 | 229 | 8.0 | 12.9 | 0.00 | 0.00 | 0.00 | 49 | 1020.5 |
| 20260507121131 | 23 | 213 | 6.4 | 11.3 | 0.00 | 0.00 | 0.00 | 48 | 1020.7 |
| 20260507120628 | 23 | 203 | 6.4 | 11.3 | 0.00 | 0.00 | 0.00 | 47 | 1020.7 |
| 20260507120124 | 22 | 207 | 6.4 | 11.3 | 0.00 | 0.00 | 0.00 | 51 | 1020.7 |
| 20260507115621 | 22 | 217 | 9.7 | 11.3 | 0.00 | 0.00 | 0.00 | 50 | 1020.6 |
| 20260507115117 | 23 | 205 | 8.0 | 11.3 | 0.00 | 0.00 | 0.00 | 50 | 1020.4 |
| 20260507114613 | 23 | 227 | 8.0 | 14.5 | 0.00 | 0.00 | 0.00 | 54 | 1020.4 |
| 20260507114110 | 23 | 199 | 9.7 | 12.9 | 0.00 | 0.00 | 0.00 | 52 | 1020.4 |
| 20260507113607 | 23 | 214 | 8.0 | 11.3 | 0.00 | 0.00 | 0.00 | 53 | 1020.2 |
| 20260507113104 | 23 | 228 | 6.4 | 11.3 | 0.00 | 0.00 | 0.00 | 52 | 1020.0 |
| 20260507112602 | 23 | 229 | 6.4 | 9.7 | 0.00 | 0.00 | 0.00 | 54 | 1020.2 |
| 20260507112059 | 22 | 209 | 6.4 | 6.4 | 0.00 | 0.00 | 0.00 | 53 | 1020.4 |
| 20260507111555 | 22 | 229 | 6.4 | 9.7 | 0.00 | 0.00 | 0.00 | 55 | 1020.7 |
| 20260507111052 | 22 | 239 | 3.2 | 8.0 | 0.00 | 0.00 | 0.00 | 57 | 1020.8 |
| 20260507110548 | 22 | 226 | 6.4 | 8.0 | 0.00 | 0.00 | 0.00 | 60 | 1020.9 |
| 20260507110045 | 22 | 231 | 4.8 | 8.0 | 0.00 | 0.00 | 0.00 | 59 | 1020.8 |
| 20260507105542 | 22 | 242 | 4.8 | 8.0 | 0.00 | 0.00 | 0.00 | 57 | 1020.5 |
| 20260507105038 | 23 | 240 | 6.4 | 8.0 | 0.00 | 0.00 | 0.00 | 56 | 1020.4 |
| 20260507104535 | 22 | 250 | 3.2 | 8.0 | 0.00 | 0.00 | 0.00 | 60 | 1020.5 |
| 20260507104032 | 22 | 217 | 6.4 | 9.7 | 0.00 | 0.00 | 0.00 | 61 | 1020.3 |
| 20260507103528 | 22 | 236 | 6.4 | 6.4 | 0.00 | 0.00 | 0.00 | 61 | 1020.5 |
| 20260507103025 | 22 | 207 | 6.4 | 6.4 | 0.00 | 0.00 | 0.00 | 62 | 1020.6 |
| 20260507102522 | 22 | 230 | 6.4 | 8.0 | 0.00 | 0.00 | 0.00 | 62 | 1020.6 |
| 20260507102018 | 22 | 230 | 6.4 | 8.0 | 0.00 | 0.00 | 0.00 | 61 | 1020.5 |
| 20260507101513 | 22 | 248 | 6.4 | 8.0 | 0.00 | 0.00 | 0.00 | 62 | 1020.5 |
| 20260507101010 | 21 | 225 | 6.4 | 8.0 | 0.00 | 0.00 | 0.00 | 63 | 1020.6 |
| 20260507100507 | 21 | 233 | 6.4 | 8.0 | 0.00 | 0.00 | 0.00 | 65 | 1020.4 |
| 20260507100005 | 21 | 234 | 6.4 | 8.0 | 0.00 | 0.00 | 0.00 | 64 | 1020.4 |
| 20260507095503 | 21 | 207 | 6.4 | 9.7 | 0.00 | 0.00 | 0.00 | 66 | 1020.5 |
| 20260507094959 | 21 | 231 | 11.3 | 14.5 | 0.00 | 0.00 | 0.00 | 64 | 1020.3 |
| 20260507094455 | 22 | 218 | 8.0 | 12.9 | 0.00 | 0.00 | 0.00 | 63 | 1020.2 |
| 20260507093953 | 22 | 218 | 9.7 | 9.7 | 0.00 | 0.00 | 0.00 | 60 | 1020.2 |
| 20260507093450 | 22 | 214 | 6.4 | 9.7 | 0.00 | 0.00 | 0.00 | 63 | 1020.5 |
| 20260507092948 | 21 | 209 | 8.0 | 9.7 | 0.00 | 0.00 | 0.00 | 62 | 1020.5 |
| 20260507092444 | 21 | 206 | 8.0 | 8.0 | 0.00 | 0.00 | 0.00 | 62 | 1020.6 |
| 20260507091941 | 22 | 198 | 8.0 | 11.3 | 0.00 | 0.00 | 0.00 | 62 | 1020.6 |
| 20260507091438 | 22 | 203 | 8.0 | 11.3 | 0.00 | 0.00 | 0.00 | 65 | 1020.6 |
| 20260507090934 | 21 | 215 | 4.8 | 9.7 | 0.00 | 0.00 | 0.00 | 65 | 1020.2 |
| 20260507090430 | 21 | 227 | 6.4 | 9.7 | 0.00 | 0.00 | 0.00 | 65 | 1020.4 |
| 20260507085926 | 21 | 217 | 9.7 | 11.3 | 0.00 | 0.00 | 0.00 | 65 | 1020.3 |
| 20260507085424 | 21 | 215 | 9.7 | 9.7 | 0.00 | 0.00 | 0.00 | 65 | 1020.4 |
| 20260507084921 | 21 | 231 | 11.3 | 12.9 | 0.00 | 0.00 | 0.00 | 67 | 1020.3 |
| 20260507084417 | 21 | 223 | 8.0 | 11.3 | 0.00 | 0.00 | 0.00 | 67 | 1020.4 |
| 20260507083915 | 21 | 216 | 8.0 | 9.7 | 0.00 | 0.00 | 0.00 | 65 | 1020.1 |
| 20260507083411 | 21 | 244 | 6.4 | 6.4 | 0.00 | 0.00 | 0.00 | 68 | 1020.2 |
| 20260507082907 | 21 | 214 | 6.4 | 8.0 | 0.00 | 0.00 | 0.00 | 68 | 1020.2 |
| 20260507082403 | 21 | 218 | 8.0 | 9.7 | 0.00 | 0.00 | 0.00 | 66 | 1020.2 |
| 20260507081901 | 21 | 228 | 8.0 | 9.7 | 0.00 | 0.00 | 0.00 | 66 | 1020.3 |
| 20260507081356 | 21 | 206 | 4.8 | 8.0 | 0.00 | 0.00 | 0.00 | 67 | 1020.2 |
| 20260507080853 | 20 | 211 | 6.4 | 9.7 | 0.00 | 0.00 | 0.00 | 68 | 1020.0 |
| 20260507080349 | 21 | 221 | 6.4 | 11.3 | 0.00 | 0.00 | 0.00 | 67 | 1020.0 |
| 20260507075845 | 20 | 243 | 3.2 | 8.0 | 0.00 | 0.00 | 0.00 | 67 | 1019.8 |
| 20260507075341 | 20 | 219 | 6.4 | 9.7 | 0.00 | 0.00 | 0.00 | 64 | 1019.9 |